Location: Zagreb
(45.8000°N, 16.0000°E)
Time: 20:56:45
(UTC+01:00)

CUTE-I - Pass Details

Date: 02 November 2020
Orbit: 811 x 824 km, 98.7° (Epoch: 01 December)

Event Time Altitude Azimuth Distance (km) Brightness Sun altitude
Rises 17:12:21 0° 162° (SSE) 3,318 ? -6.1°
Reaches altitude 10° 17:14:40 10° 161° (SSE) 2,391 ? -6.5°
Maximum altitude 17:19:58 84° 75° (ENE) 823 ? -7.4°
Drops below altitude 10° 17:25:19 10° 347° (NNW) 2,413 ? -8.3°
Sets 17:27:40 0° 347° (NNW) 3,350 ? -8.7°
